Location: Aulus
(42.7909°N, 1.3399°E)
Time: 06:09:57
(UTC+00:00)

deb Kosmos- 1980 - Pass Details

Date: 21 October 2025
Orbit: 834 x 854 km, 71.0° (Epoch: 17 November)

Event Time Altitude Azimuth Distance (km) Brightness Sun altitude
Rises 18:42:37 0° 340° (NNW) 3,400 ? -19.0°
Reaches altitude 10° 18:45:13 10° 348° (NNW) 2,459 ? -19.5°
Maximum altitude 18:50:32 42° 58° (ENE) 1,184 ? -20.5°
Enters shadow 18:51:15 40° 78° (ENE) 1,218 ? -20.6°
